Sparta, TN

8:35 PM CST on February 07, 2016 (GMT -0600)
Upper Cumberland Regional

Weather History for KSRB - February, 2013

Change the Weather History Date:

Sunday, February 10, 2013

  Actual Average (KCSV) Record (KCSV)
Temperature  
Mean Temperature 50 °F 38 °F  
Max Temperature 55 °F 47 °F 68 °F (1959)
Min Temperature 44 °F 29 °F -8 °F (1979)
Degree Days  
Heating Degree Days 16    
Month to date heating degree days  
Since 1 July heating degree days  
Cooling Degree Days 0    
Month to date cooling degree days  
Year to date cooling degree days  
Moisture  
Dew Point 41 °F    
Average Humidity 71    
Maximum Humidity 100    
Minimum Humidity 47    
Precipitation  
Precipitation 0.00 in 0.15 in 1.18 in (1983)
Month to date precipitation 1.59  
Year to date precipitation 6.35  
Sea Level Pressure  
Sea Level Pressure 30.05 in    
Wind  
Wind Speed 11 mph (South)    
Max Wind Speed 26 mph    
Max Gust Speed 36 mph    
Visibility 9 miles    
Events      
T = Trace of Precipitation, MM = Missing Value Source: NWS Daily Summary

Daily Weather History Graph

Daily Weather History Graph

Search for Another Location

Airport or City:

Trip Planner

Search our weather history database for the weather conditions in past years. The results will help you decide how hot, cold, wet, or windy it might be!

Date:

Astronomy

Feb. 10, 2013 Rise Set
Actual Time 6:34 AM CST 5:18 PM CST
Civil Twilight 6:08 AM CST 5:45 PM CST
Nautical Twilight 5:37 AM CST 6:15 PM CST
Astronomical Twilight 5:07 AM CST 6:45 PM CST
Moon 6:26 AM CST (2/10) 6:05 PM CST (2/10)
Length of Visible Light 11h 37m
Length of Day
10h 44m
New Moon, 0% of the Moon is Illuminated
Feb 10
New Moon
Feb 17
First Quarter
Feb 25
Full
Mar 4
Last Quarter
Mar 11
New

Hourly Weather History & Observations

Time (CST) Temp. Windchill Dew Point Humidity Pressure Visibility Wind Dir Wind Speed Gust Speed Precip Events Conditions
12:15 AM 44.6 °F 42.2 °F 30.2 °F 57% 30.17 in 10.0 mi South 4.6 mph - N/A   Clear
12:35 AM 46.4 °F 42.9 °F 30.2 °F 53% 30.17 in 10.0 mi South 6.9 mph - N/A   Clear
12:55 AM 46.4 °F 43.5 °F 30.2 °F 53% 30.18 in 10.0 mi South 5.8 mph - N/A   Clear
1:15 AM 46.4 °F 42.9 °F 30.2 °F 53% 30.17 in 10.0 mi SSE 6.9 mph - N/A   Clear
1:35 AM 48.2 °F - 30.2 °F 50% 30.16 in 10.0 mi South 5.8 mph - N/A   Clear
1:55 AM 48.2 °F - 32.0 °F 54% 30.17 in 10.0 mi South 5.8 mph - N/A   Clear
2:15 AM 48.2 °F - 32.0 °F 54% 30.16 in 10.0 mi SSE 5.8 mph - N/A   Clear
2:35 AM 48.2 °F - 32.0 °F 54% 30.15 in 10.0 mi South 9.2 mph - N/A   Clear
2:55 AM 50.0 °F - 33.8 °F 54% 30.16 in 10.0 mi South 8.1 mph - N/A   Clear
3:15 AM 48.2 °F - 33.8 °F 58% 30.17 in 10.0 mi South 6.9 mph - N/A   Clear
3:35 AM 48.2 °F - 33.8 °F 58% 30.16 in 10.0 mi South 8.1 mph - N/A   Clear
3:55 AM 50.0 °F - 32.0 °F 50% 30.16 in 10.0 mi South 8.1 mph - N/A   Clear
4:15 AM 48.2 °F - 32.0 °F 54% 30.18 in 10.0 mi South 5.8 mph - N/A   Clear
4:35 AM 48.2 °F - 32.0 °F 54% 30.15 in 10.0 mi SSE 5.8 mph - N/A   Clear
4:55 AM 50.0 °F - 32.0 °F 50% 30.15 in 10.0 mi South 9.2 mph - N/A   Clear
5:15 AM 50.0 °F - 33.8 °F 54% 30.14 in 10.0 mi South 12.7 mph - N/A   Partly Cloudy
5:35 AM 50.0 °F - 33.8 °F 54% 30.14 in 10.0 mi South 10.4 mph - N/A   Partly Cloudy
5:55 AM 48.2 °F - 33.8 °F 58% 30.15 in 10.0 mi South 11.5 mph - N/A   Partly Cloudy
6:15 AM 48.2 °F - 33.8 °F 58% 30.16 in 10.0 mi South 12.7 mph - N/A   Clear
6:35 AM 50.0 °F - 33.8 °F 54% 30.14 in 10.0 mi South 16.1 mph - N/A   Clear
6:55 AM 50.0 °F - 33.8 °F 54% 30.14 in 10.0 mi South 11.5 mph - N/A   Clear
7:15 AM 50.0 °F - 33.8 °F 54% 30.14 in 10.0 mi South 20.7 mph - N/A   Clear
7:35 AM 50.0 °F - 33.8 °F 54% 30.14 in 10.0 mi South 19.6 mph - N/A   Clear
7:55 AM 51.8 °F - 33.8 °F 50% 30.14 in 10.0 mi South 18.4 mph - N/A   Partly Cloudy
8:15 AM 51.8 °F - 33.8 °F 50% 30.14 in 10.0 mi South 19.6 mph - N/A   Scattered Clouds
8:35 AM 51.8 °F - 33.8 °F 50% 30.14 in 10.0 mi South 13.8 mph - N/A   Partly Cloudy
8:55 AM 51.8 °F - 33.8 °F 50% 30.14 in 10.0 mi South 19.6 mph 28.8 mph N/A   Partly Cloudy
9:15 AM 51.8 °F - 33.8 °F 50% 30.12 in 10.0 mi South 21.9 mph 31.1 mph N/A   Partly Cloudy
9:35 AM 53.6 °F - 35.6 °F 51% 30.11 in 10.0 mi South 23.0 mph - N/A   Clear
9:55 AM 55.4 °F - 35.6 °F 47% 30.10 in 10.0 mi South 20.7 mph - N/A   Clear
10:15 AM 55.4 °F - 35.6 °F 47% 30.10 in 10.0 mi South 23.0 mph 32.2 mph N/A   Clear
10:35 AM 55.4 °F - 37.4 °F 51% 30.08 in 10.0 mi South 23.0 mph - N/A   Clear
10:55 AM 55.4 °F - 37.4 °F 51% 30.08 in 10.0 mi South 26.5 mph 35.7 mph N/A   Clear
11:15 AM 55.4 °F - 37.4 °F 51% 30.06 in 10.0 mi South 24.2 mph - N/A   Partly Cloudy
11:35 AM 55.4 °F - 37.4 °F 51% 30.05 in 10.0 mi South 19.6 mph 32.2 mph N/A   Partly Cloudy
11:55 AM 55.4 °F - 37.4 °F 51% 30.03 in 10.0 mi South 16.1 mph 32.2 mph N/A   Scattered Clouds
12:15 PM 53.6 °F - 37.4 °F 54% 30.04 in 10.0 mi South 12.7 mph - N/A   Overcast
12:35 PM 50.0 °F - 39.2 °F 66% 30.06 in 2.5 mi SSW 18.4 mph 32.2 mph N/A   Overcast
12:55 PM 48.2 °F - 39.2 °F 71% 30.04 in 2.0 mi South 12.7 mph - N/A   Overcast
1:15 PM 48.2 °F - 41.0 °F 76% 30.01 in 8.0 mi South 10.4 mph - N/A   Mostly Cloudy
1:35 PM 48.2 °F - 42.8 °F 82% 30.00 in 10.0 mi South 9.2 mph - N/A   Overcast
1:55 PM 48.2 °F - 42.8 °F 82% 29.98 in 3.0 mi South 15.0 mph - N/A   Overcast
2:15 PM 48.2 °F - 44.6 °F 87% 29.99 in 4.0 mi South 16.1 mph - N/A   Mostly Cloudy
2:35 PM 48.2 °F - 46.4 °F 93% 30.00 in 2.5 mi South 12.7 mph - N/A   Overcast
2:55 PM 46.4 °F 41.9 °F 46.4 °F 100% 30.01 in 2.5 mi SSW 9.2 mph - N/A   Overcast
3:15 PM 46.4 °F 42.4 °F 46.4 °F 100% 30.01 in 2.0 mi SSW 8.1 mph - N/A   Overcast
3:35 PM 46.4 °F 40.4 °F 46.4 °F 100% 29.99 in 2.0 mi South 13.8 mph - N/A   Overcast
3:55 PM 48.2 °F - 46.4 °F 93% 30.00 in 2.0 mi South 10.4 mph - N/A   Overcast
4:15 PM 48.2 °F - 48.2 °F 100% 29.93 in 1.8 mi South 17.3 mph - N/A   Overcast
4:35 PM 48.2 °F - 48.2 °F 100% 29.92 in 10.0 mi South 16.1 mph - N/A   Mostly Cloudy
4:55 PM 50.0 °F - 48.2 °F 94% 29.94 in 10.0 mi South 17.3 mph - N/A   Scattered Clouds
5:15 PM 51.8 °F - 48.2 °F 88% 29.93 in 10.0 mi South 20.7 mph 26.5 mph N/A   Scattered Clouds
5:35 PM 50.0 °F - 48.2 °F 94% 29.94 in 10.0 mi South 17.3 mph - N/A   Clear
5:55 PM 50.0 °F - 48.2 °F 94% 29.95 in 10.0 mi South 13.8 mph - N/A   Clear
6:15 PM 51.8 °F - 48.2 °F 88% 29.95 in 10.0 mi South 13.8 mph - N/A   Partly Cloudy
6:35 PM 51.8 °F - 48.2 °F 88% 29.94 in 10.0 mi South 13.8 mph - N/A   Mostly Cloudy
6:55 PM 51.8 °F - 48.2 °F 88% 29.93 in 10.0 mi South 13.8 mph - N/A   Overcast
7:15 PM 51.8 °F - 48.2 °F 88% 29.93 in 10.0 mi South 16.1 mph 21.9 mph N/A   Mostly Cloudy
7:35 PM 51.8 °F - 48.2 °F 88% 29.93 in 10.0 mi South 13.8 mph - N/A   Scattered Clouds
7:55 PM 51.8 °F - 50.0 °F 94% 29.93 in 10.0 mi South 13.8 mph - N/A   Clear
8:15 PM 51.8 °F - 50.0 °F 94% 29.93 in 10.0 mi South 13.8 mph - N/A   Clear
8:35 PM 51.8 °F - 50.0 °F 94% 29.92 in 10.0 mi South 11.5 mph - N/A   Scattered Clouds
8:55 PM 53.6 °F - 51.8 °F 94% 29.91 in 10.0 mi South 15.0 mph - N/A   Mostly Cloudy
9:15 PM 53.6 °F - 51.8 °F 94% 29.92 in 10.0 mi South 10.4 mph - N/A   Mostly Cloudy
9:35 PM 53.6 °F - 51.8 °F 94% 29.92 in 10.0 mi South 11.5 mph - N/A   Overcast
9:55 PM 53.6 °F - 51.8 °F 94% 29.93 in 10.0 mi South 12.7 mph - N/A   Overcast
10:15 PM 53.6 °F - 51.8 °F 94% 29.92 in 10.0 mi South 10.4 mph - N/A   Overcast
10:35 PM 53.6 °F - 51.8 °F 94% 29.92 in 10.0 mi South 12.7 mph - N/A   Overcast
10:55 PM 53.6 °F - 51.8 °F 94% 29.92 in 10.0 mi South 10.4 mph - N/A   Overcast
11:15 PM 55.4 °F - 51.8 °F 88% 29.93 in 10.0 mi South 8.1 mph - N/A   Overcast
11:35 PM 55.4 °F - 53.6 °F 94% 29.95 in 10.0 mi South 3.5 mph - N/A   Overcast
11:55 PM 53.6 °F - 53.6 °F 100% 29.94 in 7.0 mi SSE 6.9 mph - N/A   Overcast